sat.trackr.live / text

‹ back to catalog

ONEWEB-0318

NORAD 49104 · 2021-075AF

PAYLOAD ACTIVE UNKNOWN

§ Identity

Operator
Country
UK
Launch date
2021-08-21
Launch site
TYMSC
Launch vehicle
Mass (kg)
RCS (m²)

Purposes: comms

External: N2YO · Heavens-Above · Gunter

§ Orbital elements

Epoch: 2026-05-25T02:08:08.244384Z

Period
109.20 min
Inclination
87.9169°
Eccentricity
0.0002087
Mean motion
13.18685471 rev/d
Perigee alt
1,188.2 km
Apogee alt
1,191.3 km
Semi-major
7,567.9 km
B*
1.0475e-4
RAAN
340.0540°
Arg perigee
90.2277°
Mean anomaly
269.9094°
Rev number
23,412

§ Raw data

ONEWEB-03181 49104U 21075AF  26145.08898431  .00000054  00000+0  10475-3 0  99902 49104  87.9169 340.0540 0002087  90.2277 269.9094 13.18685471234125

JSON: /api/v1/satellites/49104 · /tle

For live sub-satellite position, see the globe view (requires WebGL).

§ Visibility from observer

Set your observer location to see the next 7 days of passes ≥ 10°. The values pass through the URL so the page stays shareable.

No JS? Fill the form by hand. The geolocation button needs JavaScript.